CZ-6A DEB

Satellite information

Favourite Embed

Satellite Type and Status

DEBRISIN ORBIT

Key statistics

Satellite CZ-6A DEB at a glance.

Uptime

439

Days in orbit

Revolutions

≈ 14.7

Per day

Orbit

LEO

Low Earth Orbit

Inclination

88.9

Latest

Satellite identification and parameters

Extended collection of information and parameters for CZ-6A DEB.

Object identification

Identified? True

Debris? True

Object name: CZ-6A DEB

International designator: 2024-140DR

Object number (NORAD): 60712

Object ID (CCSDS): 60712

Country: PEOPLES REPUBLIC OF CHINA (PRC)

Current information (Y/N): Y

RCS size: MEDIUM

Orbital parameters

Period: 98.165 minutes

Inclination: 88.8759 deg

SMA: 7049.08 km

Apoapsis: 778.724 km

Periapsis: 563.166 km

RAAN: 291.6772 deg

Eccentricy: 0.01528982

Argument of periapsis: 336.867 deg

Mean anomaly: 22.5709 deg

Mean motion: 14.66912205 rev/day

Mean motion (dot): 0.00006489 rev/day2

B* drag term: 0.00097075009 1/REarth

Two-line elements (TLE)

Creation date: Oct. 18, 2025, 2:17 a.m.

Reference frame: TEME

Reference center: EARTH

Epoch: Oct. 17, 2025, 11:17 p.m. UTC

TLE line 0: 0 CZ-6A DEB

TLE line 1: 1 60712U 24140DR 25290.97018443 .00006489 00000-0 97075-3 0 9999

TLE line 2: 2 60712 88.8759 291.6772 0152898 336.8670 22.5709 14.66912205 63238

Live tracking on map

Real-time ground track for satellite CZ-6A DEB.

In-orbit conjunctions

A list of the most updated potential collisions computed for object CZ-6A DEB.

Target Orbit TCA Probability of collision Miss distance Type
FENGYUN 1C DEB SSO 2025-02-11 22:06:17 0.0003038313 644.0 (m) DEBRIS
CZ-6A DEB LEO 2024-12-23 09:07:55 0.0001193165 821.0 (m) DEBRIS
THORAD AGENA D DEB LEO 2024-11-07 17:20:49 0.0002949092 210.0 (m) DEBRIS
FENGYUN 1C DEB SSO 2024-11-07 09:23:21 0.0001444776 816.0 (m) DEBRIS
SL-8 DEB * LEO 2024-11-05 02:55:20 0.008607512 39.0 (m) DEBRIS

Associated space launch

18 Low Earth Orbit communication satellites with Ku, Q and V band payloads for the G60 constellation operated by Shanghai Spacecom Satellite Technology (SSST) with funding backed by the Shanghai local government. Initial constellation will consist of 1296 satellites by 2027 with long term plans to expand it to 12000 satellites.

CZ-6A DEB was lifted into orbit during the mission ‘Long March 6A | G60 Polar Group 01’, on board a Long March 6A space rocket.

The launch took place on Aug. 6, 2024, 6:42 a.m. from Launch Complex 9A.

For more information about the launch, click the button.

Launch to space Long March 6A | G60 Polar Group 01
Long March 6A | G60 Polar Group 01

Agency: N/A

Status: Launch Successful

Launch date: Aug. 6, 2024, 6:42 a.m. UTC

Rocket: Long March 6A

Launch pad: Launch Complex 9A

Location: Taiyuan Satellite Launch Center, People's Republic of China

...

Latest news about this satellite

News about space launch
Brightness of first Chinese broadband constellation satellites alarms astronomers

The first satellites of a Chinese broadband constellation are significantly brighter than those of Western systems, posing a new challenge for astronomers.

News about space launch
Chinese rocket stage breaks up into cloud of more than 700 pieces of space debris

HELSINKI — A Chinese Long March 6A rocket’s upper stage has fragmented into a cloud of over 700 pieces of space debris, adding to concerns about long-term orbital safety. China […]

News about space launch
China's Thousand Sails Megaconstellation Kicks Off with Dangerous Debris Field

China's Thousand Sails Megaconstellation Kicks Off with Dangerous Debris Field


Newsletter sign-up

Weekly statistics, charts and insights to help you stay on top of the space industry.